Flag for China Weather past 2 weeks in Lanchow, Gansu, China

Now
28 °F

Partly sunny.


Feels Like: 22 °F
Forecast: 16 / 30 °F
Wind: 6 mph from East

Location: Lanzhou / Zhongchuan

Current Time: Jan 27, 2015 at 4:43:24 PM

Latest Report: Jan 27, 2015 at 4:00 PM


Visibility: N/A

Pressure: 29.95 "Hg

Humidity: 55%

Dew point: 14 °F

Location of LanchowLocation

Historic Weather in Lanchow — Graph

°F

Lanchow temperature yesterday

Maximum temperature yesterday: 32 °F (at 12:00 AM)
Minimum temperature yesterday: 19 °F (at 10:00 PM)
Average temperature yesterday: 26 °F

Past Weeks' High & Low Weather Summary

 TemperatureHumidityPressure
High46 °F (Jan 12, 4:00 PM)86% (Jan 17, 11:00 AM)30.39 "Hg (Jan 17, 11:00 AM)
Low1 °F (Jan 18, 6:00 AM)13% (Jan 12, 3:00 PM)29.71 "Hg (Jan 23, 3:00 PM)
Average22 °F48%30.14 "Hg
* Reported Jan 12 3:00 PM — Jan 27 3:00 PM, Lanchow, Weather by CustomWeather, © 2014

Note: Actual official high and low records may vary slightly from our data, if they occured in-between our weather recording intervals... More about our weather records

Advertising

Lanchow weather history for previous 24 hours

 ConditionsComfort  
Time TempWeatherWind HumidityBarometerVisibility
3:00 PM
Jan 27
28 °FPartly sunny.6 mph51%29.95 "HgN/A
2:00 PM28 °FPartly sunny.6 mph51%29.98 "HgN/A
1:00 PM28 °FScattered clouds.3 mph47%30.04 "HgN/A
12:00 PM27 °FScattered clouds.1 mph50%30.04 "HgN/A
11:00 AM23 °FOvercast.1 mph54%30.07 "HgN/A
10:00 AM23 °FOvercast.1 mph54%30.09 "HgN/A
9:00 AM21 °FOvercast.No wind58%30.07 "Hg5 mi
8:00 AM19 °FPassing clouds.No wind63%30.07 "HgN/A
7:00 AM19 °FPassing clouds.No wind63%30.07 "HgN/A
6:00 AM18 °FClear.3 mph68%30.09 "Hg10 mi
5:00 AM18 °FClear.No wind62%30.12 "Hg10 mi
4:00 AM18 °FPassing clouds.3 mph62%30.15 "HgN/A
3:00 AM18 °FClear.3 mph62%30.15 "Hg10 mi
2:00 AM18 °FClear.3 mph62%30.21 "Hg10 mi
1:00 AM19 °FClear.1 mph58%30.21 "Hg10 mi
12:00 AM19 °FPassing clouds.3 mph58%30.21 "HgN/A
11:00 PM
Jan 26
19 °FClear.1 mph63%30.24 "Hg10 mi
10:00 PM19 °FPassing clouds.3 mph63%30.24 "HgN/A
9:00 PM21 °FClear.3 mph58%30.24 "Hg10 mi
8:00 PM23 °FClear.6 mph54%30.24 "Hg10 mi
7:00 PM25 °FSunny.8 mph50%30.18 "Hg10 mi
6:00 PM27 °FSunny.10 mph46%30.15 "Hg10 mi
5:00 PM30 °FPassing clouds.8 mph43%30.12 "HgN/A
4:00 PM30 °FPassing clouds.8 mph43%30.12 "HgN/A
Weather by CustomWeather, © 2014

See weather overviewHow to use our weather pages